Waarnemingen

Advertentie
Mijn weer
San Sebastian/Igueldo, Spanje (8027): temperatuur & dauwpunt: 08.12.2017 17:00:00 - 14.12.2017 17:00:00 (CET)San Sebastian/Igueldo, Spanje (8027): windsnelheid: 08.12.2017 17:00:00 - 14.12.2017 17:00:00 (CET)San Sebastian/Igueldo, Spanje (8027): windrichting: 08.12.2017 17:00:00 - 14.12.2017 17:00:00 (CET)San Sebastian/Igueldo, Spanje (8027): luchtdruk: 08.12.2017 17:00:00 - 14.12.2017 17:00:00 (CET)San Sebastian/Igueldo, Spanje (8027): zicht: 08.12.2017 17:00:00 - 14.12.2017 17:00:00 (CET)
Datum & Tijd tt [°C] td [°C] ff [km/u] ff [kn] dd ppp [hPa] vv [km]
14.12.2017 17:00:00 - - - - - - -
14.12.2017 16:00:00 12,2 9,9 21 11 NW 1013,8 30
14.12.2017 15:00:00 - - - - - - -
14.12.2017 14:00:00 - - - - - - -
14.12.2017 13:00:00 12,7 9,0 5 3 N 1015,7 40
14.12.2017 12:00:00 - - - - - - -
14.12.2017 11:00:00 - - - - - - -
14.12.2017 10:00:00 10,7 8,6 18 10 WNW 1017,8 35
14.12.2017 09:00:00 - - - - - - -
14.12.2017 08:00:00 - - - - - - -
14.12.2017 07:00:00 10,5 8,8 21 11 NW 1018,0 20
14.12.2017 06:00:00 - - - - - - -
14.12.2017 05:00:00 - - - - - - -
14.12.2017 04:00:00 10,3 8,9 28 15 WNW 1018,9 1,0
14.12.2017 03:00:00 - - - - - - -
14.12.2017 02:00:00 - - - - - - -
14.12.2017 01:00:00 10,9 8,8 15 8 WNW 1019,4 5
14.12.2017 00:00:00 - - - - - - -
13.12.2017 23:00:00 - - - - - - -
13.12.2017 22:00:00 12,9 7,1 29 16 W 1018,2 40
13.12.2017 21:00:00 - - - - - - -
13.12.2017 20:00:00 - - - - - - -
13.12.2017 19:00:00 11,9 4,9 16 9 ZW 1017,8 30
13.12.2017 18:00:00 - - - - - - -
13.12.2017 17:00:00 - - - - - - -
13.12.2017 16:00:00 12,5 2,4 28 15 W 1017,5 40
13.12.2017 15:00:00 - - - - - - -
13.12.2017 14:00:00 - - - - - - -
13.12.2017 13:00:00 10,2 3,5 26 14 Z 1020,4 50
13.12.2017 12:00:00 - - - - - - -
13.12.2017 11:00:00 - - - - - - -
13.12.2017 10:00:00 8,4 4,2 15 8 Z 1021,4 50
13.12.2017 09:00:00 - - - - - - -
13.12.2017 08:00:00 - - - - - - -
13.12.2017 07:00:00 7,9 1,3 15 8 Z 1020,7 50
13.12.2017 06:00:00 - - - - - - -
13.12.2017 05:00:00 - - - - - - -
13.12.2017 04:00:00 6,5 1,8 16 9 ZZW 1021,3 50
13.12.2017 03:00:00 - - - - - - -
13.12.2017 02:00:00 - - - - - - -
13.12.2017 01:00:00 6,8 2,5 8 4 Z 1022,3 50
13.12.2017 00:00:00 - - - - - - -
12.12.2017 23:00:00 - - - - - - -
12.12.2017 22:00:00 7,6 2,3 11 6 ZW 1021,6 50
12.12.2017 21:00:00 - - - - - - -
12.12.2017 20:00:00 - - - - - - -
12.12.2017 19:00:00 7,2 2,5 15 8 WZW 1021,1 50
12.12.2017 18:00:00 - - - - - - -
12.12.2017 17:00:00 - - - - - - -
12.12.2017 16:00:00 8,0 3,3 11 6 W 1018,5 50
12.12.2017 15:00:00 - - - - - - -
12.12.2017 14:00:00 - - - - - - -
12.12.2017 13:00:00 7,4 3,3 9 5 ZW 1017,8 30
12.12.2017 12:00:00 - - - - - - -
12.12.2017 11:00:00 - - - - - - -
12.12.2017 10:00:00 5,0 2,5 11 6 W 1016,1 25
12.12.2017 09:00:00 - - - - - - -
12.12.2017 08:00:00 - - - - - - -
12.12.2017 07:00:00 4,2 2,7 11 6 ZW 1013,3 15
12.12.2017 06:00:00 - - - - - - -
12.12.2017 05:00:00 - - - - - - -
12.12.2017 04:00:00 5,2 3,2 5 3 ZZW 1010,0 12
12.12.2017 03:00:00 - - - - - - -
12.12.2017 02:00:00 - - - - - - -
12.12.2017 01:00:00 5,4 3,6 34 18 NW 1006,8 7
12.12.2017 00:00:00 - - - - - - -
11.12.2017 23:00:00 - - - - - - -
11.12.2017 22:00:00 5,6 3,8 29 16 NW 1003,7 12
11.12.2017 21:00:00 - - - - - - -
11.12.2017 20:00:00 - - - - - - -
11.12.2017 19:00:00 5,4 3,6 39 21 NW 999,6 12
11.12.2017 18:00:00 - - - - - - -
11.12.2017 17:00:00 - - - - - - -
11.12.2017 16:00:00 8,6 4,0 29 16 NW 994,4 15
11.12.2017 15:00:00 - - - - - - -
11.12.2017 14:00:00 - - - - - - -
11.12.2017 13:00:00 10,2 2,3 18 10 W 991,6 35
11.12.2017 12:00:00 - - - - - - -
11.12.2017 11:00:00 - - - - - - -
11.12.2017 10:00:00 7,6 3,5 18 10 W 989,8 30
11.12.2017 09:00:00 - - - - - - -
11.12.2017 08:00:00 - - - - - - -
11.12.2017 07:00:00 7,0 4,3 24 13 W 987,8 25
11.12.2017 06:00:00 - - - - - - -
11.12.2017 05:00:00 - - - - - - -
11.12.2017 04:00:00 8,6 6,1 29 16 WNW 985,8 20
11.12.2017 03:00:00 - - - - - - -
11.12.2017 02:00:00 - - - - - - -
11.12.2017 01:00:00 17,4 6,0 35 19 WZW 981,8 20
11.12.2017 00:00:00 - - - - - - -
10.12.2017 23:00:00 - - - - - - -
10.12.2017 22:00:00 15,6 7,9 29 16 WZW 987,6 25
10.12.2017 21:00:00 - - - - - - -
10.12.2017 20:00:00 - - - - - - -
10.12.2017 19:00:00 10,6 10,1 16 9 NW 996,0 20
10.12.2017 18:00:00 - - - - - - -
10.12.2017 17:00:00 - - - - - - -
10.12.2017 16:00:00 12,0 11,2 21 11 NNW 1000,1 0,1
10.12.2017 15:00:00 - - - - - - -
10.12.2017 14:00:00 - - - - - - -
10.12.2017 13:00:00 15,2 8,2 28 15 WZW 1002,8 30
10.12.2017 12:00:00 - - - - - - -
10.12.2017 11:00:00 - - - - - - -
10.12.2017 10:00:00 13,8 7,3 35 19 ZW 1005,9 25
10.12.2017 09:00:00 - - - - - - -
10.12.2017 08:00:00 - - - - - - -
10.12.2017 07:00:00 13,0 7,9 34 18 ZW 1009,1 25
10.12.2017 06:00:00 - - - - - - -
10.12.2017 05:00:00 - - - - - - -
10.12.2017 04:00:00 12,8 8,5 15 8 WZW 1012,4 25
10.12.2017 03:00:00 - - - - - - -
10.12.2017 02:00:00 - - - - - - -
10.12.2017 01:00:00 12,4 9,8 22 12 ZW 1014,9 25
10.12.2017 00:00:00 - - - - - - -
09.12.2017 23:00:00 - - - - - - -
09.12.2017 22:00:00 11,6 9,7 29 16 W 1016,0 30
09.12.2017 21:00:00 - - - - - - -
09.12.2017 20:00:00 - - - - - - -
09.12.2017 19:00:00 8,2 7,0 21 11 ZW 1018,3 15
09.12.2017 18:00:00 - - - - - - -
09.12.2017 17:00:00 - - - - - - -
09.12.2017 16:00:00 8,6 5,5 15 8 ZZW 1021,1 25
09.12.2017 15:00:00 - - - - - - -
09.12.2017 14:00:00 - - - - - - -
09.12.2017 13:00:00 8,7 5,6 13 7 ZW 1024,9 30
09.12.2017 12:00:00 - - - - - - -
09.12.2017 11:00:00 - - - - - - -
09.12.2017 10:00:00 6,7 5,2 4 2 Z 1026,9 13
09.12.2017 09:00:00 - - - - - - -
09.12.2017 08:00:00 - - - - - - -
09.12.2017 07:00:00 7,8 4,6 8 4 N 1026,7 30
09.12.2017 06:00:00 - - - - - - -
09.12.2017 05:00:00 - - - - - - -
09.12.2017 04:00:00 7,8 4,4 18 10 NO 1027,4 20
09.12.2017 03:00:00 - - - - - - -
09.12.2017 02:00:00 - - - - - - -
09.12.2017 01:00:00 8,5 4,1 18 10 NO 1027,8 30
09.12.2017 00:00:00 - - - - - - -
08.12.2017 23:00:00 - - - - - - -
08.12.2017 22:00:00 8,8 5,9 21 11 NO 1027,8 15
08.12.2017 21:00:00 - - - - - - -
08.12.2017 20:00:00 - - - - - - -
08.12.2017 19:00:00 8,0 7,6 15 8 NNW 1027,6 20
08.12.2017 18:00:00 - - - - - - -
08.12.2017 17:00:00 - - - - - - -

tt = temperatuur
td = dauwpunt
ff = windsnelheid
dd = windrichting
ppp = luchtdruk
vv = zicht

Weerstations in de omgeving